Temp
18 18 18 19 19 20 20 21 21 22 22 23 23 24 24 25 25 25 26 26 27 27 27 28 29 29 30 31 32 32 25 25 28 28 28 31 30 30 28 25 26 25 25 25 24
18 18 18 19 19 19 20 20 21 21 22 22 23 23 24 25 25 26 26 27 27 27 27 28 29 30 31 32 32 30 25 29 31 30 29 30 30 31 26 25 22 24 25 25 25
18 18 18 18 19 19 20 20 21 21 22 22 23 23 24 24 25 27 27 27 27 27 28 29 29 30 30 32 32 32 29 31 32 31 31 31 30 29 27 24 23 24 25 25 25
18 18 19 19 19 19 20 20 20 21 21 22 22 23 24 23 24 28 27 27 27 27 28 29 29 29 29 31 32 31 32 32 32 31 32 31 31 30 29 27 26 25 25 25 24
18 18 19 19 19 19 20 20 20 21 21 22 22 23 23 23 26 26 27 27 27 27 28 28 28 30 29 32 32 31 32 33 33 32 32 32 31 30 27 25 23 24 25 25 26
18 19 19 19 19 20 20 20 20 21 21 21 22 22 23 22 27 27 27 27 27 27 28 28 29 31 31 32 32 32 32 32 33 33 33 32 31 29 25 26 24 21 25 25 26
18 19 20 20 20 20 20 20 20 21 21 21 22 22 22 26 28 27 27 27 28 28 28 29 30 31 31 29 32 32 30 30 32 33 32 32 27 25 28 26 25 25 26 26 26
19 19 20 20 20 20 20 20 21 21 21 21 21 21 23 27 27 27 28 28 28 28 29 29 30 30 30 31 31 30 29 28 31 32 32 31 26 24 29 30 29 27 27 27 26
19 20 20 21 21 21 21 21 21 21 21 22 21 21 22 27 27 27 28 28 29 29 29 30 29 29 30 27 26 28 26 29 31 33 32 31 27 25 26 24 25 26 28 28 27
19 20 20 21 21 21 21 21 21 21 21 21 21 19 25 27 28 28 28 28 29 29 29 30 29 25 25 25 24 28 29 30 30 33 32 30 23 26 26 26 27 26 26 27 27
19 20 21 21 21 21 21 21 21 22 21 23 26 26 29 29 29 28 28 29 30 30 27 30 25 24 26 28 30 30 30 29 30 32 32 27 24 25 26 26 26 24 26 21 23
19 20 21 21 21 22 21 22 24 25 25 27 27 26 28 29 29 29 29 29 29 27 29 27 25 28 30 31 31 30 29 29 30 32 30 24 23 24 25 25 26 27 25 24 22
20 20 21 21 21 21 22 24 24 24 25 28 28 27 29 29 30 29 29 29 28 27 28 26 28 32 32 31 31 30 28 28 30 32 32 24 22 22 24 23 24 26 27 22 24
20 20 21 21 21 21 23 25 24 24 22 27 26 28 29 29 29 30 30 30 29 28 29 28 31 32 31 30 30 27 30 32 31 29 25 28 22 21 22 21 22 26 24 24 25
21 21 21 21 21 21 24 25 24 24 21 29 29 30 30 30 31 31 30 30 28 29 31 28 30 30 30 31 31 29 31 31 31 28 27 28 23 22 20 20 21 24 26 25 24
20 20 21 21 22 23 24 24 25 22 24 29 31 30 29 30 30 31 31 30 31 29 29 29 33 32 31 32 31 32 31 29 28 26 25 28 27 20 22 22 20 23 25 28 26
20 20 21 21 22 22 23 24 22 23 30 29 28 29 28 28 30 30 29 27 26 27 26 29 30 31 33 31 30 30 27 23 24 24 25 26 22 20 23 26 22 20 22 28 27
20 20 21 21 22 23 24 23 22 28 29 31 30 30 29 30 29 30 28 27 27 28 27 27 26 30 31 30 29 28 28 23 26 25 24 27 22 21 21 21 25 24 24 27 27
20 20 22 22 22 23 23 22 25 27 30 32 30 29 29 31 31 29 28 28 29 29 28 27 28 32 32 32 30 28 27 29 27 27 25 21 20 22 20 21 20 19 25 23 25
21 20 23 23 23 23 22 22 26 30 31 32 30 30 28 30 30 29 28 30 31 32 31 31 27 31 33 33 32 31 30 25 23 25 25 23 23 22 22 18 19 19 19 21 27
21 21 25 23 24 24 22 25 29 32 33 31 32 31 31 30 30 30 30 32 33 32 33 32 28 27 31 29 29 28 26 26 26 25 25 22 20 21 18 18 18 17 19 24 27
20 22 25 24 23 25 24 27 30 32 33 32 32 31 31 31 31 29 29 30 32 31 28 28 28 25 28 30 31 31 28 28 23 24 25 25 21 20 19 19 20 20 24 28 27
19 23 26 25 23 24 27 29 31 32 32 32 32 31 32 31 29 30 30 31 31 29 27 27 24 23 24 28 29 29 29 28 27 25 24 25 22 21 19 20 22 25 25 26 28
19 23 27 26 26 26 26 27 29 32 32 32 31 31 31 31 31 30 30 31 31 28 29 29 26 25 22 24 27 26 28 29 27 24 25 25 23 19 19 20 21 25 26 26 27
21 24 24 24 26 26 27 27 28 30 32 31 30 31 29 27 28 28 29 29 29 29 29 27 25 26 26 28 28 28 28 29 27 27 26 26 24 20 19 18 23 23 25 26 25
19 19 20 22 26 29 25 27 28 28 28 29 29 30 28 25 26 25 26 26 27 28 28 27 24 25 24 27 28 28 28 29 29 29 27 24 23 22 23 22 22 24 25 24 24
16 18 19 23 25 27 26 28 29 28 29 29 29 27 25 26 27 27 28 29 28 26 25 25 24 23 23 25 25 24 26 28 28 27 26 24 22 22 18 19 18 23 23 23 23
Height
1525 1524 1523 1523 1522 1522 1522 1522 1522 1522 1521 1521 1521 1520 1519 1518 1517 1516 1516 1516 1516 1515 1513 1511 1508 1503 1501 1501 1500 1498 1510 1520 1512 1510 1509 1500 1499 1499 1500 1502 1512 1516 1513 1519 1526
1524 1523 1522 1521 1521 1520 1520 1520 1521 1521 1521 1520 1520 1519 1518 1517 1515 1514 1515 1515 1515 1514 1513 1511 1505 1501 1500 1499 1497 1498 1511 1506 1499 1501 1502 1500 1498 1497 1500 1503 1512 1515 1517 1520 1526
1523 1522 1521 1520 1519 1519 1519 1519 1519 1519 1519 1519 1519 1518 1517 1516 1515 1511 1511 1513 1515 1515 1513 1509 1505 1502 1499 1495 1496 1497 1506 1498 1496 1498 1500 1498 1497 1498 1503 1509 1511 1513 1519 1522 1525
1521 1520 1519 1519 1518 1517 1517 1517 1517 1517 1518 1518 1518 1518 1517 1517 1518 1510 1510 1512 1514 1514 1512 1508 1505 1502 1498 1495 1495 1500 1495 1494 1494 1496 1498 1499 1498 1498 1499 1507 1509 1514 1521 1527 1525
1520 1518 1517 1516 1516 1516 1515 1515 1516 1516 1516 1516 1516 1516 1517 1516 1511 1511 1511 1511 1513 1513 1511 1508 1507 1502 1498 1493 1493 1495 1494 1493 1493 1494 1495 1496 1498 1501 1508 1510 1523 1521 1520 1525 1525
1518 1516 1515 1514 1514 1514 1513 1514 1514 1514 1514 1515 1515 1515 1515 1515 1509 1509 1510 1511 1511 1512 1509 1508 1506 1503 1497 1495 1495 1495 1495 1493 1492 1492 1493 1495 1496 1498 1506 1507 1510 1523 1513 1516 1521
1516 1513 1512 1512 1512 1512 1512 1512 1512 1513 1513 1513 1514 1513 1512 1507 1507 1509 1509 1510 1510 1511 1508 1506 1508 1505 1502 1498 1495 1494 1497 1491 1489 1490 1491 1492 1501 1499 1498 1498 1501 1510 1509 1513 1516
1513 1511 1510 1510 1509 1509 1510 1510 1511 1511 1512 1512 1513 1512 1507 1504 1505 1506 1508 1509 1510 1510 1510 1509 1507 1505 1504 1499 1495 1495 1495 1507 1485 1486 1488 1491 1510 1493 1494 1495 1496 1502 1504 1508 1513
1511 1509 1508 1507 1507 1508 1508 1509 1509 1510 1511 1511 1512 1512 1505 1502 1502 1504 1506 1507 1508 1509 1509 1508 1509 1509 1504 1504 1509 1498 1517 1503 1494 1483 1486 1489 1504 1500 1499 1503 1504 1506 1497 1500 1505
1509 1507 1505 1505 1506 1506 1507 1508 1508 1509 1510 1511 1512 1514 1501 1496 1498 1501 1503 1504 1507 1507 1508 1509 1509 1510 1505 1510 1533 1510 1506 1499 1499 1485 1485 1492 1511 1500 1496 1495 1499 1511 1504 1492 1502
1507 1505 1503 1503 1504 1505 1506 1508 1511 1511 1509 1502 1499 1495 1493 1494 1498 1500 1502 1503 1504 1505 1508 1504 1513 1520 1504 1496 1492 1493 1498 1504 1491 1482 1487 1499 1503 1498 1495 1492 1489 1495 1498 1507 1505
1504 1502 1501 1501 1502 1504 1505 1505 1504 1508 1502 1497 1497 1496 1493 1496 1498 1499 1502 1504 1503 1506 1501 1506 1514 1495 1489 1485 1488 1493 1502 1503 1489 1481 1488 1502 1504 1496 1489 1494 1491 1483 1487 1498 1501
1502 1500 1499 1500 1501 1503 1503 1502 1503 1502 1501 1491 1490 1493 1493 1495 1494 1495 1500 1501 1500 1503 1499 1507 1495 1487 1486 1488 1491 1494 1502 1500 1496 1482 1480 1499 1510 1499 1484 1485 1488 1486 1487 1495 1491
1500 1498 1498 1499 1503 1502 1501 1501 1505 1505 1511 1490 1489 1489 1490 1493 1492 1490 1494 1499 1496 1500 1494 1495 1482 1483 1486 1491 1490 1507 1484 1485 1487 1498 1521 1487 1539 1509 1501 1492 1484 1481 1491 1487 1490
1497 1497 1497 1499 1500 1500 1501 1503 1504 1507 1537 1477 1482 1482 1484 1488 1481 1486 1491 1495 1496 1493 1490 1496 1487 1486 1490 1487 1483 1495 1480 1484 1487 1499 1502 1500 1521 1515 1508 1509 1497 1491 1485 1493 1487
1496 1496 1496 1498 1499 1501 1502 1504 1506 1518 1524 1480 1476 1480 1484 1485 1484 1485 1490 1493 1491 1490 1486 1484 1478 1479 1480 1477 1478 1477 1483 1485 1487 1498 1531 1497 1501 1529 1508 1502 1502 1492 1487 1480 1477
1495 1495 1495 1497 1498 1499 1503 1505 1516 1522 1467 1479 1480 1479 1483 1486 1483 1484 1491 1496 1502 1509 1506 1487 1482 1473 1474 1482 1478 1479 1494 1531 1532 1527 1526 1498 1521 1519 1497 1490 1497 1496 1487 1482 1481
1495 1494 1495 1496 1498 1499 1501 1506 1522 1481 1476 1462 1471 1476 1485 1479 1481 1482 1490 1498 1488 1490 1496 1504 1510 1474 1469 1479 1488 1487 1491 1526 1534 1533 1525 1492 1521 1517 1501 1507 1494 1501 1487 1487 1484
1495 1495 1496 1497 1498 1500 1502 1513 1497 1481 1470 1464 1469 1482 1482 1473 1475 1481 1487 1489 1480 1477 1499 1500 1495 1465 1464 1467 1474 1485 1498 1477 1499 1492 1512 1525 1527 1511 1504 1516 1526 1519 1495 1498 1489
1497 1496 1493 1495 1498 1500 1502 1503 1484 1469 1461 1456 1475 1470 1483 1474 1476 1480 1485 1470 1472 1468 1469 1478 1503 1470 1465 1465 1467 1475 1472 1504 1508 1530 1533 1528 1520 1524 1503 1521 1522 1520 1511 1504 1489
1497 1496 1488 1493 1497 1500 1504 1490 1473 1460 1458 1460 1459 1466 1468 1470 1470 1475 1473 1467 1464 1469 1470 1473 1488 1490 1471 1480 1482 1483 1496 1491 1490 1503 1522 1539 1532 1502 1508 1508 1504 1517 1500 1493 1487
1498 1495 1491 1494 1498 1495 1492 1479 1466 1460 1459 1459 1458 1461 1466 1463 1468 1477 1477 1474 1469 1471 1483 1480 1486 1505 1489 1468 1466 1474 1485 1487 1518 1515 1498 1502 1528 1499 1495 1491 1489 1492 1491 1490 1485
1497 1494 1490 1492 1497 1491 1482 1476 1467 1462 1462 1460 1462 1464 1460 1465 1483 1472 1474 1472 1474 1479 1486 1484 1498 1520 1509 1485 1477 1481 1477 1477 1480 1484 1502 1508 1516 1495 1493 1492 1486 1484 1491 1486 1485
1499 1491 1488 1488 1487 1485 1482 1479 1474 1464 1463 1462 1465 1463 1465 1468 1466 1472 1474 1475 1476 1479 1482 1481 1491 1506 1528 1509 1490 1494 1482 1474 1480 1500 1497 1495 1497 1503 1496 1488 1483 1487 1489 1488 1486
1498 1491 1492 1488 1483 1481 1479 1475 1475 1468 1465 1466 1468 1469 1472 1481 1477 1479 1474 1474 1478 1478 1479 1482 1501 1494 1492 1486 1484 1485 1483 1477 1482 1479 1491 1482 1485 1491 1489 1483 1479 1483 1485 1487 1489
1503 1502 1495 1490 1479 1475 1477 1476 1487 1471 1472 1473 1473 1471 1471 1486 1487 1492 1483 1484 1484 1481 1480 1482 1502 1495 1501 1488 1486 1487 1478 1474 1470 1467 1472 1478 1487 1479 1481 1491 1496 1491 1489 1486 1492
1508 1506 1504 1487 1481 1479 1480 1479 1472 1474 1477 1476 1475 1478 1484 1485 1484 1484 1484 1483 1483 1486 1487 1489 1495 1505 1515 1496 1495 1505 1484 1474 1471 1469 1472 1487 1485 1485 1496 1496 1501 1495 1497 1495 1496
Wind_Speed
7 7 7 7 7 7 8 8 8 8 8 8 8 8 9 9 8 10 8 3 6 10 9 11 13 18 20 20 9 11 4 3 6 7 3 5 2 4 12 24 16 6 13 27 33
8 8 8 8 7 7 8 7 8 9 9 9 8 8 9 10 11 13 9 11 10 9 9 10 20 21 19 15 1 4 4 3 3 7 6 6 6 2 7 14 12 9 18 25 28
10 9 9 8 8 8 8 7 8 8 8 8 8 8 9 11 13 12 11 11 8 6 9 10 15 20 25 17 4 3 1 2 3 8 3 5 6 7 12 1 12 18 19 23 32
10 10 9 9 9 8 8 7 7 8 8 8 8 8 9 8 3 3 1 9 7 6 10 17 18 25 11 3 8 2 8 10 4 8 3 3 9 3 8 2 20 24 25 23 32
12 11 10 9 9 8 7 7 7 7 7 7 7 7 8 6 17 9 2 5 6 8 12 14 23 26 8 6 6 5 4 11 1 12 11 4 5 7 26 17 3 13 19 20 25
13 11 10 9 8 8 7 7 6 6 6 6 6 7 6 6 2 3 2 2 5 6 12 14 20 20 12 14 1 3 7 18 11 5 8 4 5 8 18 19 11 14 21 28 27
15 12 10 9 8 7 6 6 6 5 5 5 5 6 10 18 3 1 2 7 3 11 12 12 18 14 19 10 10 3 7 10 9 7 4 6 4 4 13 15 23 18 36 29 29
16 12 10 8 7 7 6 5 5 4 4 4 4 6 10 8 15 11 10 10 10 11 16 16 9 7 12 18 17 7 6 4 6 9 6 6 7 10 12 10 10 9 31 29 25
16 11 9 8 6 6 5 4 4 3 4 5 3 6 11 6 14 12 10 12 9 8 11 8 7 9 19 7 7 5 7 5 6 7 5 4 6 3 8 12 20 30 28 28 30
17 12 9 7 6 5 5 4 3 4 4 6 7 9 13 16 14 14 14 14 12 10 13 10 6 5 6 3 6 6 1 5 3 2 3 6 9 4 8 14 4 12 6 28 25
16 12 8 7 6 6 7 6 2 2 10 12 8 7 3 5 13 12 12 10 8 14 6 16 4 8 14 12 15 6 4 8 9 6 4 9 6 6 6 7 2 10 14 20 16
15 12 6 7 7 8 11 8 2 11 11 18 15 21 17 9 7 10 14 10 12 8 10 6 10 15 15 13 4 6 7 9 9 5 5 7 4 8 4 4 11 9 18 29 30
14 10 5 5 7 9 13 18 1 8 5 12 26 19 13 7 14 18 17 17 10 9 10 9 13 13 8 7 3 5 8 9 5 2 3 7 6 8 6 10 11 15 7 31 40
12 6 4 5 6 4 8 5 7 5 3 3 9 9 19 13 10 19 21 16 8 10 10 9 12 7 5 6 7 6 9 7 8 5 4 4 3 7 8 14 12 21 18 25 39
8 4 4 11 5 10 8 5 4 3 3 14 12 7 18 15 8 14 20 17 11 12 4 12 7 8 8 5 8 9 8 6 6 8 4 1 5 4 4 12 14 27 33 14 31
7 4 7 12 8 4 7 1 6 1 6 7 9 7 9 17 17 18 13 14 15 9 11 10 16 5 5 6 9 8 7 9 6 2 3 8 5 5 3 6 7 26 35 17 34
7 4 9 13 12 6 3 6 1 4 6 11 10 11 10 9 9 9 7 7 6 3 7 10 10 10 6 4 9 6 5 5 5 4 11 5 6 7 7 5 5 16 38 24 10
4 4 11 13 8 9 8 2 4 9 8 10 13 12 12 12 8 9 9 7 11 10 11 2 8 8 7 7 8 7 6 4 4 3 4 3 6 5 7 18 17 26 38 19 19
1 4 10 5 10 8 5 4 4 4 6 12 11 12 10 14 6 8 10 10 12 14 5 2 5 7 8 7 8 11 4 6 4 6 3 4 7 7 10 13 5 11 31 32 24
3 6 10 7 13 7 4 6 5 13 24 15 10 11 11 9 7 9 11 11 15 6 6 2 4 7 5 5 6 3 6 6 5 3 5 3 5 4 2 10 14 22 29 47 17
7 4 7 15 13 5 4 6 15 28 10 7 0 2 5 9 9 7 8 6 4 6 3 3 4 10 7 3 4 8 5 6 2 3 4 4 5 5 11 6 19 32 47 19 16
4 3 17 17 7 6 5 6 12 13 4 4 3 7 11 7 6 4 9 8 15 15 4 4 2 5 7 9 7 2 7 6 3 8 3 1 2 11 15 18 28 31 32 2 15
5 10 13 17 4 7 13 14 21 6 4 4 2 13 3 6 4 10 7 9 8 5 2 6 3 5 10 5 7 4 7 6 5 2 5 2 4 11 9 4 17 27 15 11 9
4 3 7 18 18 11 12 4 15 2 10 11 6 10 6 3 3 4 10 7 11 11 5 2 2 2 5 8 5 8 14 14 5 2 4 2 9 7 11 9 14 20 12 13 19
3 5 10 3 7 10 10 6 16 5 3 9 5 5 6 7 8 6 10 7 11 10 5 3 1 5 8 8 9 11 11 12 9 8 4 7 8 15 14 11 17 13 9 18 19
9 8 14 18 19 3 3 7 15 8 9 5 3 10 10 8 7 9 9 8 4 1 5 4 3 7 7 10 12 13 14 16 14 8 6 13 7 5 7 6 4 10 16 18 17
18 10 7 13 10 8 7 2 8 10 5 17 11 8 13 10 16 15 14 11 8 6 5 3 1 3 5 7 10 8 8 9 5 8 8 8 5 6 5 20 24 21 22 20 16
Wind_Direction
317 310 302 294 290 288 282 281 280 279 280 283 287 293 297 295 287 282 268 284 301 305 297 295 296 292 280 277 294 296 56 2 19 23 74 13 118 157 122 76 76 198 169 152 152
317 308 300 295 289 284 281 280 280 279 278 281 284 289 295 297 291 265 227 262 289 295 290 297 298 318 277 277 283 36 78 347 107 47 346 359 14 7 75 91 127 102 143 147 161
320 309 301 294 289 285 281 280 277 276 276 278 280 284 291 299 311 280 238 237 261 281 276 289 301 302 291 284 87 350 58 305 169 113 354 323 263 88 122 316 168 159 166 166 167
321 312 303 294 288 285 281 278 275 273 272 273 277 280 285 299 321 14 321 226 245 252 266 266 290 291 282 151 130 197 224 216 201 142 129 329 335 220 159 200 150 145 158 169 169
323 314 307 299 289 282 278 274 271 270 269 270 274 279 288 278 259 266 276 223 225 227 253 274 289 299 325 5 49 222 3 315 163 148 203 214 240 43 69 106 6 160 159 190 183
328 313 305 298 289 280 273 269 265 263 260 262 267 273 276 254 164 210 174 173 221 234 246 269 280 319 307 341 309 30 310 285 284 158 348 118 2 101 105 92 142 242 184 182 191
330 314 304 295 288 278 267 261 258 254 250 251 258 267 256 236 167 233 247 243 233 216 248 270 311 309 330 320 348 276 249 269 266 151 205 68 21 236 152 167 188 244 178 179 188
332 316 301 291 284 274 262 254 250 245 239 237 246 273 258 237 226 243 231 237 231 244 254 286 319 340 301 296 303 270 282 306 154 157 153 161 257 243 198 212 243 232 170 175 186
335 318 301 284 275 263 249 240 237 229 222 217 215 266 266 233 209 204 211 224 211 238 254 279 349 294 288 280 303 264 249 270 247 172 161 170 350 74 206 14 357 332 165 181 188
335 321 298 273 258 244 223 212 221 202 203 227 212 290 229 224 223 210 208 223 211 224 231 241 221 231 281 264 252 309 171 311 320 236 120 35 88 30 166 158 61 328 195 180 179
334 325 297 257 238 216 201 182 170 225 214 209 242 226 300 169 172 185 195 223 220 227 207 229 194 229 242 243 255 10 341 303 281 262 110 78 39 327 299 48 30 156 25 111 86
332 323 293 243 226 210 205 203 47 346 279 253 241 253 280 165 167 205 189 206 228 243 229 270 224 237 250 266 50 3 297 272 292 121 103 98 9 300 282 60 344 289 94 152 160
329 318 289 234 218 226 233 216 33 31 281 263 224 228 236 229 212 193 196 216 245 225 254 223 252 239 236 295 271 249 243 264 269 346 313 110 344 322 316 340 298 270 285 183 182
325 305 268 190 183 205 275 234 232 28 303 190 188 233 226 209 251 221 185 210 236 238 249 243 267 269 232 246 282 270 264 314 353 11 267 65 270 302 342 319 318 305 172 213 206
327 292 224 174 168 159 52 34 78 247 306 154 180 193 186 192 201 175 180 214 258 276 256 261 269 231 276 234 261 244 289 329 298 291 320 244 90 303 30 323 313 315 293 238 222
328 282 207 185 181 114 127 174 174 281 245 180 154 160 164 219 255 150 164 209 251 281 300 271 286 292 251 247 245 262 290 287 269 232 1 229 133 295 160 201 313 352 315 280 215
323 261 199 182 156 187 120 193 237 236 188 154 161 171 187 210 229 143 178 206 230 236 257 273 261 252 208 301 314 292 296 304 313 86 245 207 42 232 285 355 23 355 327 330 122
334 189 182 176 150 131 173 210 257 275 266 154 157 167 208 208 191 164 175 226 231 233 263 211 332 265 175 179 226 277 214 177 300 67 204 173 186 268 289 28 51 328 303 342 90
320 193 195 182 174 163 220 206 245 250 291 154 162 170 218 221 162 152 201 217 226 221 210 128 291 315 168 190 174 269 318 259 338 294 112 102 358 303 332 346 44 235 272 321 107
275 304 244 181 160 169 236 250 272 273 285 149 167 177 205 208 178 182 193 225 238 136 74 298 342 291 300 149 269 271 273 354 2 2 1 154 157 211 291 29 17 350 313 305 100
319 281 187 177 130 226 239 254 290 290 301 10 127 243 267 164 172 229 205 18 92 116 122 328 29 293 326 58 358 330 17 333 142 153 241 154 272 256 100 105 46 6 294 275 109
336 273 170 161 181 219 240 247 281 294 337 319 28 360 190 274 212 124 80 46 38 27 20 8 256 317 294 241 231 157 144 248 133 287 290 162 26 150 167 156 146 208 257 359 95
308 275 183 182 220 238 255 276 279 332 323 289 200 133 327 54 356 109 63 98 70 69 60 337 348 3 341 18 354 325 298 276 247 347 304 31 194 201 214 200 172 211 276 326 107
309 286 180 205 240 277 292 229 296 298 330 40 11 4 8 150 174 0 152 137 138 124 101 24 359 194 228 256 307 341 330 325 329 0 285 197 131 184 205 207 206 225 297 352 96
267 308 22 276 228 232 262 333 303 224 190 37 4 330 24 17 1 23 29 32 85 139 166 112 275 297 302 326 322 299 285 286 298 289 303 253 168 165 194 208 199 239 339 55 56
13 356 336 299 316 284 140 289 260 7 5 36 15 336 51 55 35 21 19 29 28 310 12 4 313 13 334 328 326 325 317 307 289 291 17 86 51 223 150 104 106 22 85 69 50
11 330 314 288 307 322 358 261 46 139 252 27 43 19 48 16 357 342 328 320 304 314 311 311 317 51 284 304 330 318 288 281 51 49 80 66 134 108 64 36 324 73 66 64 60